Location: Fort-Mahon
(50.7023°N, 1.7012°E)
Time: 14:31:37
(UTC+00:00)

Daily predictions for brighter satellites

Satellite Brightness Start Highest point End
(mag) Time Altitude Azimuth Time Altitude Azimuth Time Altitude Azimuth
Spot 2 Rocket 3.8 19:59:05 10° SE 20:03:54 50° ENE 20:08:45 10° N
MetOp-B 4.2 19:58:48 10° SSE 20:04:10 84° ENE 20:09:33 10° NNW
Cosmos 2173 Rocket 4.0 20:03:11 10° S 20:09:12 64° E 20:15:22 10° NNE
Okean 1 Rocket 3.1 20:04:56 10° S 20:09:14 60° E 20:13:37 10° NNE
ADEOS 3.6 20:04:44 10° SSE 20:09:57 84° ENE 20:15:12 10° NNW
Helios 1A Rocket 2.2 20:11:48 10° NNE 20:14:59 88° ESE 20:18:08 10° SSW
Cosmos 2219 Rocket 4.5 20:13:17 10° N 20:16:04 14° NNE 20:18:52 10° NE
SKYMED 3 4.3 20:20:40 10° NNE 20:24:37 76° ESE 20:28:33 10° S
ERS-1 Rocket 3.5 20:19:55 10° S 20:24:51 58° W 20:29:49 10° NNW
SJ 16-02 4.1 20:24:58 10° WNW 20:26:39 12° W 20:28:21 10° WSW
ATLAS 3B R/B 3.3 20:19:44 10° NW 20:27:27 65° SW 20:34:41 10° SSE
Cosmos 2369 4.2 20:22:19 10° NNW 20:27:53 50° NE 20:33:06 12° SE
Cosmos 2322 Rocket 4.1 20:24:02 10° NNW 20:28:06 20° NE 20:32:12 10° E
DEBRIS 3.2 20:28:18 10° SW 20:30:59 49° SSE 20:37:47 10° ENE
Cosmos 1741 Rocket 4.1 20:25:55 10° NNW 20:31:15 84° WSW 20:36:33 10° SSE
Cosmos 1452 Rocket 3.6 20:26:46 10° S 20:31:50 53° ESE 20:36:56 10° NNE
Cosmos 2082 Rocket 3.0 20:26:54 10° SSE 20:31:52 32° ESE 20:36:51 10° NE
SL-08 R/B 3.3 20:28:06 10° NNE 20:33:00 74° ESE 20:37:46 10° S
Cosmos 968 Rocket 4.3 20:31:37 10° NNW 20:36:40 49° WSW 20:41:41 10° S
Sich 1 Rocket 3.6 20:32:27 10° SSW 20:36:49 84° WNW 20:41:13 10° N
Cosmos 1331 Rocket 4.0 20:33:28 10° SSW 20:38:42 82° ESE 20:43:57 10° NNE
Cosmos 1802 Rocket 4.0 20:32:40 10° S 20:38:50 74° E 20:44:59 10° NNE
YAOGAN 11 4.2 20:35:03 10° NNE 20:39:25 58° ESE 20:43:47 10° S
Cosmos 1867 4.4 20:35:16 10° WSW 20:40:36 56° NW 20:46:00 10° NE
CZ-4B R/B 3.9 20:36:55 13° SE 20:40:54 44° ENE 20:45:27 10° N
Cosmos 1302 Rocket 4.3 20:43:13 10° S 20:48:07 46° ESE 20:53:04 10° NE
Cosmos 1697 Rocket 4.0 20:44:38 10° NW 20:49:42 36° WSW 20:54:45 10° S
MOS 1-B 4.5 20:45:06 10° SSE 20:50:54 78° WSW 20:56:45 10° NNW
CZ-2C R/B 3.4 20:49:47 17° ESE 20:51:06 25° ENE 20:53:27 10° N
Cosmos 2151 4.1 20:47:42 10° N 20:51:17 27° ENE 20:53:43 16° ESE
Meteor 2-12 Rocket 4.4 20:45:51 10° N 20:51:57 78° ENE 20:57:39 12° SSE
Terra 3.2 20:48:53 10° SSW 20:53:11 36° W 20:57:32 10° NNW
NOSS 3-3 (A) 4.4 20:49:38 10° S 20:54:09 32° ESE 20:59:23 10° NE
Cosmos 1459 Rocket 4.4 20:49:14 10° SSW 20:55:27 68° WNW 21:01:36 10° N
SL-16 R/B 3.1 20:50:45 10° NNW 20:56:03 38° NE 21:00:34 14° ESE
COSMOS 2406 4.3 20:54:43 15° SSE 20:58:03 25° ESE 21:02:40 10° NE
Cosmos 1743 2.8 20:57:48 10° NNW 21:00:44 49° W 21:03:16 13° S
Cosmos 2228 2.8 20:58:22 11° S 21:02:21 69° E 21:06:28 10° NNE
USA 306 3.9 21:00:10 10° SSW 21:00:59 14° S 21:00:59 14° S
USA 186 2.4 21:00:42 13° SSW 21:02:48 40° W 21:05:25 10° NNW
Cosmos 1782 2.4 21:00:50 10° S 21:04:20 88° ESE 21:07:53 10° N
SPOT 3 Rocket 3.5 21:02:11 16° SSE 21:06:25 84° ENE 21:11:35 10° NNW
Cosmos 44 Rocket 3.4 21:05:32 10° SW 21:10:37 86° NW 21:15:52 10° NE
Cosmos 2333 Rocket 3.0 21:06:04 10° NNW 21:11:30 43° NE 21:15:41 16° ESE
Cosmos 1626 Rocket 3.7 21:07:41 10° N 21:11:59 60° ENE 21:14:41 22° SSE
Cosmos 1607 3.9 21:09:18 10° SSW 21:15:23 66° SE 21:21:36 10° NE
CZ-4B R/B 2.4 21:13:30 22° S 21:15:33 78° WSW 21:18:58 10° NNW
Cosmos 1980 Rocket 3.0 21:13:02 10° NW 21:18:27 46° WSW 21:23:04 14° S
Okean O Rocket 2.8 21:16:16 10° SSW 21:20:13 36° W 21:24:13 10° NNW
ISS -3.7 21:17:26 10° SW 21:20:41 52° SSE 21:23:57 10° E
Cosmos 2233 Rocket 4.0 21:15:29 10° S 21:21:42 87° W 21:27:55 10° N
NOSS 3-3 (C) 4.1 21:17:42 10° S 21:22:33 41° ESE 21:28:17 10° NE
Helios 1B rocket 4.2 21:21:08 12° E 21:22:36 15° ENE 21:24:44 10° NNE
USA 305 2.7 21:22:05 10° WNW 21:26:05 56° SSW 21:27:31 32° SSE
Cosmos 1933 3.8 21:27:23 29° SE 21:28:42 39° E 21:32:17 10° NNE
IRS-1C Rocket 4.1 21:25:22 19° SSE 21:29:10 81° WSW 21:34:29 10° NNW
Tsikada Rocket 4.3 21:25:06 10° NNW 21:31:13 64° W 21:36:32 14° S
Okean-O 4.3 21:30:48 10° SSW 21:34:34 28° W 21:38:22 10° NW
NOSS 3-4 (A) 4.2 21:29:37 10° NW 21:35:57 57° NE 21:42:12 15° ESE
NOSS 3-4 (C) 4.2 21:30:13 10° NW 21:36:35 56° NE 21:42:51 15° ESE
Ariane Rocket 3.1 21:33:21 20° S 21:36:48 71° WSW 21:41:52 10° NNW
Cosmos 2098 Rocket 4.0 21:34:55 25° SE 21:37:01 37° E 21:41:13 10° NNE
CZ-4C R/B 2.5 21:33:31 10° WSW 21:37:51 58° NW 21:43:30 10° NE
Nadezhda 4 Rocket 4.4 21:32:37 10° N 21:38:33 48° ENE 21:42:00 24° SE
Cosmos 724 4.5 21:33:37 10° SW 21:39:40 78° NW 21:45:36 10° NE
Cosmos 2360 Rocket 2.9 21:39:23 10° NNW 21:44:51 45° NE 21:48:24 21° ESE
Cosmos 2084 Rocket 3.9 21:41:20 10° NW 21:45:23 48° SW 21:47:04 30° S
ATLAS 2AS CENTAUR R/B 4.3 21:39:50 10° W 21:46:10 37° NNW 21:52:27 10° NE
Gbstr 26 Del rocket 4.3 21:43:20 10° W 21:47:20 26° SW 21:48:34 23° SSW
Cosmos 1461 4.2 21:50:45 20° E 21:50:45 20° E 21:52:38 10° ENE
Cosmos 1437 Rocket 2.4 21:48:46 41° SSE 21:49:48 66° E 21:53:22 10° NNE
Cosmos 1544 Rocket 3.5 21:49:36 24° SSW 21:52:14 85° W 21:56:36 10° N
BREEZE-M R/B 4.4 21:43:56 10° W 21:54:00 89° N 21:59:40 10° E
USA 234 4.0 21:50:43 10° ENE 21:56:15 28° SE 21:57:36 26° SSE
Cosmos 2219 Rocket 3.1 21:56:20 10° NNW 22:01:40 40° NE 22:05:14 19° ESE
DNEPR-1 R/B 4.4 21:59:23 10° NW 22:04:41 74° NE 22:08:22 26° SE
Cosmos 1805 2.7 22:01:32 10° N 22:04:50 76° E 22:05:16 61° SE
BREEZE-M DEB (TANK) 3.1 22:03:46 10° WSW 22:04:53 21° WSW 22:04:53 21° WSW
Cosmos 1758 Rocket 4.4 22:02:20 10° NNW 22:06:30 44° W 22:08:49 23° SSW
Cosmos 1777 Rocket 4.1 22:03:36 10° NNW 22:08:50 67° ENE 22:11:10 33° SE
Cosmos 1503 Rocket 4.4 22:04:50 10° NNW 22:09:59 54° ENE 22:12:20 30° ESE
Cosmos 1992 Rocket 4.2 22:05:19 11° SSW 22:10:19 70° WNW 22:15:33 10° NNE
Cosmos 909 Rocket 4.1 22:04:31 10° SW 22:10:49 82° NW 22:17:25 10° NE
Cosmos 2322 Rocket 2.3 22:07:31 10° NNW 22:13:11 71° ENE 22:15:56 31° SE
Cosmos 1536 4.3 22:12:17 10° NNE 22:15:10 21° ENE 22:15:51 20° E
Cosmos 2082 Rocket 2.9 22:10:06 10° SW 22:15:41 54° NW 22:21:19 10° NNE
Cosmos 1464 Rocket 3.9 22:18:25 29° S 22:21:46 82° E 22:27:58 10° NNE
CZ-2C R/B 4.2 22:21:24 16° WSW 22:21:54 17° W 22:23:48 10° NW
Cosmos 1486 Rocket 3.9 22:16:38 10° NNW 22:21:55 88° WSW 22:24:02 38° SSE
Cosmos 1825 Rocket 3.4 22:18:04 10° N 22:22:25 83° ENE 22:23:40 46° SSE
Cosmos 1375 Rocket 4.5 22:18:44 19° SSW 22:23:28 68° ESE 22:30:00 10° NE
Cosmos 1953 Rocket 3.9 22:20:32 10° N 22:24:50 53° ENE 22:25:57 41° SE
Meteor 1-5 Rocket 4.3 22:19:52 10° NNW 22:25:32 79° W 22:28:14 33° S
Cosmos 2151 4.3 22:24:22 10° NNW 22:28:03 32° W 22:29:47 23° SW
ALOS 2 3.6 22:27:20 28° ESE 22:28:46 35° ENE 22:32:47 10° N
Cosmos 2058 Rocket 4.1 22:28:26 29° ESE 22:28:57 30° E 22:32:46 10° NNE
COSMOS 2428 4.4 22:24:10 10° NNW 22:28:59 27° NE 22:33:44 10° E
ARIANE 5 R/B 3.4 22:27:36 32° ESE 22:29:00 42° ENE 22:33:12 10° N
Cosmos 220 Rocket 3.7 22:29:24 52° S 22:30:18 77° ESE 22:34:24 10° NNE
Spot 4 4.5 22:28:39 32° ESE 22:30:22 45° ENE 22:34:56 10° N
Cosmos 1602 Rocket 4.4 22:27:51 10° NNW 22:31:55 42° W 22:33:31 29° SW
Cosmos 2278 3.8 22:27:45 10° NW 22:33:25 65° WSW 22:35:41 36° S
CSL-04 DEB 3.9 22:34:56 68° SE 22:35:19 79° ENE 22:38:56 10° NNW
SL-16 R/B 2.8 22:34:51 10° NW 22:40:16 47° WSW 22:42:24 32° SSW
COSMOS 2406 3.6 22:36:39 12° SW 22:41:53 66° WNW 22:47:37 10° NNE
Cosmos 1092 Rocket 4.0 22:36:52 10° N 22:43:01 69° ENE 22:45:38 36° SSE
Helios 1A 2.9 22:39:27 10° N 22:43:22 72° WNW 22:44:23 47° SW
NOSS 3-3 (A) 4.3 22:39:13 10° WSW 22:44:31 61° NW 22:50:58 10° NE
CZ-2C R/B 3.8 22:45:03 10° NNE 22:49:24 54° E 22:50:07 48° SE
Aureole 1 Rocket 4.2 22:45:35 10° NNW 22:50:45 55° ENE 22:53:46 29° SE
Cosmos-2242 3.0 22:51:19 53° ESE 22:51:45 57° E 22:55:49 10° NNE
Okean 1 3.2 22:53:46 59° WSW 22:54:08 64° WNW 22:57:42 10° N
Helios 1B rocket 2.4 22:55:06 51° WSW 22:55:14 51° W 22:58:40 10° NNW
Cosmos 2333 Rocket 2.9 22:50:30 10° NW 22:55:47 41° WSW 22:57:41 31° SSW
Cosmos 2034 Rocket 4.0 22:53:27 33° SSW 22:56:33 85° W 23:02:58 10° N
ISS -3.7 22:54:06 10° W 22:57:24 75° NNW 22:57:24 75° NNW
Cosmos 1271 Rocket 4.3 22:58:25 21° ENE 22:58:25 21° ENE 23:00:30 10° NE
CZ-2C R/B 3.9 22:56:33 20° ESE 22:59:12 32° ENE 23:03:47 10° N
Cosmos 1975 4.0 22:58:30 10° NNE 23:01:40 27° ENE 23:02:05 26° E
Cosmos 1707 3.2 23:02:42 38° NNE 23:02:42 38° NNE 23:04:39 10° NNE
Cosmos 1833 4.2 23:04:37 43° S 23:06:19 63° ESE 23:11:53 10° NE
Cosmos 1606 Rocket 4.4 23:06:52 30° WSW 23:08:30 42° WNW 23:12:39 10° N
Meteor 2-2 Rocket 4.2 23:09:39 43° S 23:11:33 77° E 23:17:18 10° NNE
Cosmos 468 Rocket 4.5 23:11:08 40° SE 23:12:02 44° ESE 23:17:01 10° NE
Cosmos 2221 3.5 23:14:13 31° E 23:14:27 31° E 23:18:09 10° NNE
Cosmos 2322 4.2 23:13:04 10° NNW 23:18:41 54° NE 23:21:36 27° ESE
Cosmos 2297 Rocket 4.1 23:18:41 13° ESE 23:19:35 14° E 23:22:19 10° ENE
Cosmos 1076 Rocket 4.4 23:15:44 10° NNW 23:19:39 36° W 23:20:26 33° WSW
Cosmos 540 Rocket 3.3 23:18:15 48° SSW 23:19:44 84° ESE 23:24:55 10° NNE
Cosmos 1726 Rocket 4.3 23:19:44 33° WSW 23:20:48 41° WNW 23:24:39 10° N
Cosmos 1634 Rocket 3.9 23:22:44 40° S 23:25:09 89° W 23:31:23 10° N
Cosmos 1461 3.5 23:24:21 30° W 23:25:42 45° NW 23:29:16 10° NNE
NOSS 3-4 (A) 4.2 23:20:28 10° NW 23:26:57 49° WSW 23:29:36 35° S
TSX-5 4.0 23:24:16 10° NNW 23:27:09 46° NE 23:27:09 46° NE
CZ-4C R/B 4.4 23:23:00 10° WNW 23:27:18 26° N 23:32:37 10° NE
Cosmos 2279 Rocket 4.0 23:25:15 41° SSE 23:27:31 70° E 23:33:45 10° NNE
NOSS 3-4 (C) 4.2 23:21:04 10° NW 23:27:34 50° WSW 23:30:15 36° S
Cosmos 1898 Rocket 3.8 23:23:30 10° NNW 23:28:38 59° ENE 23:30:35 36° SE
Cosmos 2360 Rocket 2.9 23:23:33 10° NW 23:28:47 38° WSW 23:30:08 33° SW
RESURS DK-1 3.3 23:27:13 10° NNW 23:31:00 40° NE 23:32:11 32° E
USA 290 3.3 23:35:47 39° WNW 23:35:47 39° WNW 23:38:44 10° NNE
NOSS 0 Rocket 4.4 23:33:13 10° NNW 23:39:20 57° NE 23:43:09 23° ESE
USA 234 3.1 23:33:20 10° ENE 23:39:55 79° SSE 23:44:54 19° SW
Meteor 1-11 Rocket 4.1 23:36:01 10° N 23:41:41 59° ENE 23:43:52 36° SE
Cosmos 1766 4.5 23:42:53 10° NNW 23:45:08 25° WNW 23:45:08 25° WNW
Cosmos 2219 Rocket 2.7 23:40:20 10° NW 23:45:41 45° WSW 23:46:54 39° SW
Cosmos 1763 Rocket 3.9 23:43:38 32° SW 23:45:57 58° WNW 23:51:12 10° NNE
ARGOS Delta rocket 4.1 23:40:59 10° N 23:45:59 73° WNW 23:47:34 44° SSW
Cosmos 1812 Rocket 3.8 23:48:46 50° ESE 23:49:18 54° E 23:53:36 10° NNE
Cosmos 1536 3.7 23:47:09 10° NNW 23:50:22 33° W 23:50:22 33° W
BREEZE-M DEB (TANK) 4.0 23:36:07 10° WSW 23:50:33 75° SSE 23:54:15 10° ENE
Intercosmos 24 4.5 23:51:03 10° N 23:55:18 46° ENE 23:55:56 42° ESE
Cosmos 1842 3.5 23:55:55 47° NW 23:55:55 47° NW 23:58:33 10° N
Cosmos 1470 3.0 23:52:39 10° NNW 23:55:21 47° WNW 23:55:21 47° WNW
